TOURFACTS.DK  
Stats and Facts from Tour de France.

Tour de France 2019 starts in 320 days
  Riders   Stages   Teams   Summits   Yearly  


 
Search by year

After 2018 - Stage 21:
 15000 starters.
  5165 different riders.
  638 teams.
  2253 stages.
  456 restdays.
  442940.60 km.
  5684 abandonnees.


Top 3
GC
Geraint Thomas83:17:13
Tom Dumoulin83:19:04
Christopher Froome83:19:37
Climb
Julian Alaphilippe170 pt.
Warren Barguil91 pt.
Rafal Majka76 pt.
Sprint
Peter Sagan477 pt.
Alexander Kristoff246 pt.
Arnaud Démare203 pt.
Youth
Pierre-Roger Latou..83:39:26
Egan Bernal83:45:05
Guillaume Martin84:01:31
Facts from Tour de France 2015
  |   Stages.  |   Stage winners.  |   Days in yellow  |   Average speed.  |   Route.  |   Teams.  |   All riders.  |   Rookies.  |  

  |   Withdrawls.  |   GC.  |   Polka  |   Green  |   White  |   Summits. (In tour)  |   Miscellaneous.  |  

Stage 20 on 25 - 07 - 2015
         Owning:    Christopher Froome      Romain Bardet      Peter Sagan      Nairo Quintana  

Pick a stage:  1 2 3 4 5 6 7 8 9 10 11 12 13 14 15 16 17 18 19 20 21
  Modane ValfréjusAlpe-d´Huez | Dist: 110.50 km.
Cat: HCol de la Croix de FerFRAAlexandre Geniez25 points 
Cat: HCol de la Croix de FerFRAAlexandre Geniez25 points 

Average speed for all riders in stage:  31,203 km./hr.
    Place:Name:Team:Time:Km/h:
1
FRAThibaut PinotFRAFDJ03:17:21  +  00:00:00=33,595 
2
COLNairo QuintanaESPMovistar Team03:17:39  +  00:00:18=33,544 
3
CANRyder HesjedalUSATeam Cannondale - Garmin03:18:02  +  00:00:41=33,479 
44 ESPAlejandro ValverdeESPMovistar Team03:18:59  +  00:01:38=33,319 
55 KENChristopher FroomeGBRSky Procycling03:18:59  +  00:01:38=33,319 
66 FRAPierre RollandFRATeam Europcar03:19:02  +  00:01:41=33,311 
77 AUSRichie PorteGBRSky Procycling03:19:32  +  00:02:11=33,228 
88 COLWinner AnaconaESPMovistar Team03:19:53  +  00:02:32=33,169 
99 NEDWout PoelsGBRSky Procycling03:20:11  +  00:02:50=33,120 
1010 ESPRubén PlazaITALampre-Merida03:20:11  +  00:02:50=33,120 
1111 ENGSimon YatesAUSOrica - GreenEDGE03:20:27  +  00:03:06=33,076 
1212 ESPJoaquim RodriguezRUSTeam Katusha03:20:33  +  00:03:12=33,059 
1313 LUXBob JungelsUSATrek Factory Racing03:20:47  +  00:03:26=33,021 
1414 NEDBauke MollemaUSATrek Factory Racing03:20:51  +  00:03:30=33,010 
1515 ITAVincenzo NibaliKAZAstana Pro Team03:20:51  +  00:03:30=33,010 
1616 ESPAlberto ContadorRUSTinkoff Saxo03:20:51  +  00:03:30=33,010 
1717 POLRafal MajkaRUSTinkoff Saxo03:20:51  +  00:03:30=33,010 
1818 FRARomain BardetFRAAg2r La Mondiale03:20:51  +  00:03:30=33,010 
1919 NEDSteven KruijswijkNLDTeam Lotto NL - Jumbo03:20:51  +  00:03:30=33,010 
2020 NEDRobert GesinkNLDTeam Lotto NL - Jumbo03:20:51  +  00:03:30=33,010 
2121 FRAAlexis VuillermozFRAAg2r La Mondiale03:21:37  +  00:04:16=32,884 
2222 ENGAdam YatesAUSOrica - GreenEDGE03:21:48  +  00:04:27=32,854 
2323 SUIMathias FrankCHEIAM Cycling03:21:59  +  00:04:38=32,824 
2424 FRANicolas EdetFRACofidis – Solutions Crédits03:22:14  +  00:04:53=32,784 
2525 FRAAlexandre GeniezFRAFDJ03:22:17  +  00:04:56=32,776 
2626 ESPSamuel SanchezUSABMC Racing Team03:22:22  +  00:05:01=32,762 
2727 USAAndrew TalanskyUSATeam Cannondale - Garmin03:22:40  +  00:05:19=32,714 
2828 ENGDaniel MartinUSATeam Cannondale - Garmin03:22:51  +  00:05:30=32,684 
2929 FRAPierrick FédrigoFRABretagne - Séché Environnement03:23:14  +  00:05:53=32,623 
3030 BELThomas De GendtBELLotto Soudal03:23:14  +  00:05:53=32,623 
3131 BELJan BakelantsFRAAg2r La Mondiale03:23:14  +  00:05:53=32,623 
3232 ENGStephen CummingsZAFMTN - Qhubeka P/B Samsung03:23:14  +  00:05:53=32,623 
3333 BELSerge PauwelsZAFMTN - Qhubeka P/B Samsung03:23:14  +  00:05:53=32,623 
3434 FRAWarren BarguilDEUTeam Giant Alpecin03:23:14  +  00:05:53=32,623 
3535 WALGeraint ThomasGBRSky Procycling03:23:14  +  00:05:53=32,623 
3636 DENLars BakBELLotto Soudal03:23:47  +  00:06:26=32,535 
3737 CZERoman KreuzigerRUSTinkoff Saxo03:24:01  +  00:06:40=32,497 
3838 FRANicolas RocheGBRSky Procycling03:24:04  +  00:06:43=32,489 
3939 FRAChristophe RiblonFRAAg2r La Mondiale03:24:33  +  00:07:12=32,413 
4040 FRAMickaël CherelFRAAg2r La Mondiale03:24:33  +  00:07:12=32,413 
4141 COLJosé SerpaITALampre-Merida03:25:25  +  00:08:04=32,276 
4242 ESPRafael Valls FerriITALampre-Merida03:25:25  +  00:08:04=32,276 
4343 PORNelson OliveiraITALampre-Merida03:25:25  +  00:08:04=32,276 
4444 ERIDaniel TeklehaimanotZAFMTN - Qhubeka P/B Samsung03:25:30  +  00:08:09=32,263 
4545 ESPJonathan CastroviejoESPMovistar Team03:25:30  +  00:08:09=32,263 
4646 ESPLuis Angel MateFRACofidis – Solutions Crédits03:25:30  +  00:08:09=32,263 
4747 SUIMarcel WyssCHEIAM Cycling03:26:01  +  00:08:40=32,182 
4848 ESPDaniel NavarroFRACofidis – Solutions Crédits03:26:06  +  00:08:45=32,169 
4949 ITAGiampaolo CarusoRUSTeam Katusha03:26:06  +  00:08:45=32,169 
5050 CZEJan BártaDEUBora-Argon 1803:26:06  +  00:08:45=32,169 
5151 ITAMichele ScarponiKAZAstana Pro Team03:26:16  +  00:08:55=32,143 
5252 FRAThomas VoecklerFRATeam Europcar03:26:38  +  00:09:17=32,086 
5353 FRARomain SicardFRATeam Europcar03:26:53  +  00:09:32=32,047 
5454 URSTanel KangertKAZAstana Pro Team03:26:57  +  00:09:36=32,037 
5555 FRASylvain ChavanelCHEIAM Cycling03:28:25  +  00:11:04=31,811 
5656 COLJarlinson Pantano GomezCHEIAM Cycling03:28:25  +  00:11:04=31,811 
5757 PORTiago PintoRUSTeam Katusha03:28:48  +  00:11:27=31,753 
5858 ESPAlberto LosadaRUSTeam Katusha03:28:48  +  00:11:27=31,753 
5959 SUIJakob FuglsangKAZAstana Pro Team03:29:34  +  00:12:13=31,637 
6060 NEDStef ClementCHEIAM Cycling03:29:47  +  00:12:26=31,604 
6161 NEDPieter WeeningAUSOrica - GreenEDGE03:29:47  +  00:12:26=31,604 
6262 GERSimon GeschkeDEUTeam Giant Alpecin03:30:43  +  00:13:22=31,464 
6363 SUIReto HollensteinCHEIAM Cycling03:30:51  +  00:13:30=31,444 
6464 FRAPerrig QuemeneurFRATeam Europcar03:30:51  +  00:13:30=31,444 
6565 SUIMartin ElmigerCHEIAM Cycling03:31:11  +  00:13:50=31,395 
6666 FRAJean-Christophe PeraudFRAAg2r La Mondiale03:31:38  +  00:14:17=31,328 
6767 AUSMichael RogersRUSTinkoff Saxo03:31:38  +  00:14:17=31,328 
6868 PORJosé João PimentaDEUBora-Argon 1803:32:01  +  00:14:40=31,271 
6969 ITAMatteo BonoITALampre-Merida03:32:10  +  00:14:49=31,249 
7070 SUIDanilo WyssUSABMC Racing Team03:32:10  +  00:14:49=31,249 
7171 HRVKristijan DurasekITALampre-Merida03:32:10  +  00:14:49=31,249 
7272 ESPImanol ErvitiESPMovistar Team03:32:10  +  00:14:49=31,249 
7373 URSRamunas NavardauskasUSATeam Cannondale - Garmin03:32:26  +  00:15:05=31,210 
7474 FRAJulien SimonFRACofidis – Solutions Crédits03:32:31  +  00:15:10=31,198 
7575 ERIMerhawi GhebremedhinZAFMTN - Qhubeka P/B Samsung03:34:57  +  00:17:36=30,844 
7676 BELStijn DevolderUSATrek Factory Racing03:34:57  +  00:17:36=30,844 
7777 FRAAnthony DelaplaceFRABretagne - Séché Environnement03:34:57  +  00:17:36=30,844 
7878 FRAChristophe LaporteFRACofidis – Solutions Crédits03:36:47  +  00:19:26=30,584 
7979 BELSep VanmarckeNLDTeam Lotto NL - Jumbo03:36:47  +  00:19:26=30,584 
8080 AUSRohan DennisUSABMC Racing Team03:36:47  +  00:19:26=30,584 
8181 ITADaniel OssUSABMC Racing Team03:36:47  +  00:19:26=30,584 
8282 ITADamiano CarusoUSABMC Racing Team03:36:47  +  00:19:26=30,584 
8383 NEDDylan Van BaarleUSATeam Cannondale - Garmin03:36:47  +  00:19:26=30,584 
8484 NEDWilco KeldermanNLDTeam Lotto NL - Jumbo03:36:47  +  00:19:26=30,584 
8585 ITAAdriano MaloriESPMovistar Team03:36:47  +  00:19:26=30,584 
8686 NEDAlbert TimmerDEUTeam Giant Alpecin03:36:47  +  00:19:26=30,584 
8787 ESPJosé Herrada LópezESPMovistar Team03:36:47  +  00:19:26=30,584 
8888 CZELeopold KönigGBRSky Procycling03:36:47  +  00:19:26=30,584 
8989 NEDLieuwe WestraKAZAstana Pro Team03:36:47  +  00:19:26=30,584 
9090 COLRigoberto UránBELEtixx - Quick Step03:36:47  +  00:19:26=30,584 
9191 NEDJos Van EmdenNLDTeam Lotto NL - Jumbo03:37:13  +  00:19:52=30,523 
9292 NEDBram TankinkNLDTeam Lotto NL - Jumbo03:37:20  +  00:19:59=30,506 
9393 NEDRoy CurversDEUTeam Giant Alpecin03:37:50  +  00:20:29=30,436 
9494 SUIMichael SchärUSABMC Racing Team03:37:50  +  00:20:29=30,436 
9595 NEDKoen De KortDEUTeam Giant Alpecin03:37:50  +  00:20:29=30,436 
9696 ITAMatteo TosattoRUSTinkoff Saxo03:38:40  +  00:21:19=30,320 
9797 ITAFilippo PozzatoITALampre-Merida03:38:40  +  00:21:19=30,320 
9898 SVKPeter SaganRUSTinkoff Saxo03:38:40  +  00:21:19=30,320 
9999 ITAManuel QuinziatoUSABMC Racing Team03:38:40  +  00:21:19=30,320 
100100 SLOKristjan KorenUSATeam Cannondale - Garmin03:38:40  +  00:21:19=30,320 
101101 KAZDmitriy GruzdevKAZAstana Pro Team03:38:40  +  00:21:19=30,320 
102102 FRAMatthieu LadagnousFRAFDJ03:38:40  +  00:21:19=30,320 
103103 FRAJérémy RoyFRAFDJ03:38:40  +  00:21:19=30,320 
104104 FRABenoit VaugrenardFRAFDJ03:38:40  +  00:21:19=30,320 
105105 FRABryan CoquardFRATeam Europcar03:38:40  +  00:21:19=30,320 
106106 FRAPierre-Luc PérichonFRABretagne - Séché Environnement03:38:40  +  00:21:19=30,320 
107107 SUIGregory RastUSATrek Factory Racing03:38:40  +  00:21:19=30,320 
108108 GEREmanuel BuchmannDEUBora-Argon 1803:38:40  +  00:21:19=30,320 
109109 WALLuke RoweGBRSky Procycling03:38:40  +  00:21:19=30,320 
110110 ESPHaimar ZubeldiaUSATrek Factory Racing03:38:40  +  00:21:19=30,320 
111111 FRAAngelo TulikFRATeam Europcar03:38:40  +  00:21:19=30,320 
112112 AUTGeorg PreidlerDEUTeam Giant Alpecin03:38:40  +  00:21:19=30,320 
113113 FRABryan NauleauFRATeam Europcar03:38:40  +  00:21:19=30,320 
114114 FRACyril GautierFRATeam Europcar03:38:40  +  00:21:19=30,320 
115115 UKRAndriy GrivkoKAZAstana Pro Team03:38:40  +  00:21:19=30,320 
116116 FRAArnaud GérardFRABretagne - Séché Environnement03:38:40  +  00:21:19=30,320 
117117 FRAFlorian VachonFRABretagne - Séché Environnement03:38:40  +  00:21:19=30,320 
118118 RSAJacques Janse Van RensburgZAFMTN - Qhubeka P/B Samsung03:38:40  +  00:21:19=30,320 
119119 NOREdvald Boasson HagenZAFMTN - Qhubeka P/B Samsung03:38:40  +  00:21:19=30,320 
120120 GERPaul VossDEUBora-Argon 1803:38:40  +  00:21:19=30,320 
121121 ENGIan StannardGBRSky Procycling03:38:40  +  00:21:19=30,320 
122122 ESPGorka Izaguirre InsaustiESPMovistar Team03:38:40  +  00:21:19=30,320 
123123 AUTMarco HallerRUSTeam Katusha03:38:40  +  00:21:19=30,320 
124124 AUSAdam HansenBELLotto Soudal03:38:40  +  00:21:19=30,320 
125125 FRAFrédéric BrunFRABretagne - Séché Environnement03:38:40  +  00:21:19=30,320 
126126 ITADavide CimolaiITALampre-Merida03:38:40  +  00:21:19=30,320 
127127 FRATony GallopinBELLotto Soudal03:38:40  +  00:21:19=30,320 
128128 FRAYohann GèneFRATeam Europcar03:38:40  +  00:21:19=30,320 
129129 FRADamien GaudinFRAAg2r La Mondiale03:38:40  +  00:21:19=30,320 
130130 FRABrice FeilluFRABretagne - Séché Environnement03:38:40  +  00:21:19=30,320 
131131 BELTim WellensBELLotto Soudal03:38:40  +  00:21:19=30,320 
132132 POLBartosz HuzarskiDEUBora-Argon 1803:39:16  +  00:21:55=30,237 
133133 COLJulián ArredondoUSATrek Factory Racing03:40:43  +  00:23:22=30,039 
134134 CZEZdenek StybarBELEtixx - Quick Step03:41:18  +  00:23:57=29,959 
135135 AUSMichael MatthewsAUSOrica - GreenEDGE03:41:18  +  00:23:57=29,959 
136136 BELJulien VermoteBELEtixx - Quick Step03:41:18  +  00:23:57=29,959 
137137 GERAndré GreipelBELLotto Soudal03:41:18  +  00:23:57=29,959 
138138 FRAFlorian SénéchalFRACofidis – Solutions Crédits03:41:18  +  00:23:57=29,959 
139139 ESPMarkel IrizarUSATrek Factory Racing03:41:18  +  00:23:57=29,959 
140140 BELKenneth VanbilsenFRACofidis – Solutions Crédits03:41:18  +  00:23:57=29,959 
141141 BELJens DebusschereBELLotto Soudal03:41:18  +  00:23:57=29,959 
142142 FRASébastien ChavanelFRAFDJ03:41:18  +  00:23:57=29,959 
143143 RSAReinardt Janse Van RensburgZAFMTN - Qhubeka P/B Samsung03:41:18  +  00:23:57=29,959 
144144 GERMarcel SiebergBELLotto Soudal03:41:18  +  00:23:57=29,959 
145145 ITAMatteo TrentinBELEtixx - Quick Step03:41:18  +  00:23:57=29,959 
146146 GERJohn DegenkolbDEUTeam Giant Alpecin03:41:18  +  00:23:57=29,959 
147147 GERPaul MartensNLDTeam Lotto NL - Jumbo03:41:18  +  00:23:57=29,959 
148148 FRAGeoffrey SoupeFRACofidis – Solutions Crédits03:41:18  +  00:23:57=29,959 
149149 ITAJacopo GuarnieriRUSTeam Katusha03:41:18  +  00:23:57=29,959 
150150 NEDLaurens ten DamNLDTeam Lotto NL - Jumbo03:41:18  +  00:23:57=29,959 
151151 FRAArmindo FonsecaFRABretagne - Séché Environnement03:41:18  +  00:23:57=29,959 
152152 POLMichal GolasBELEtixx - Quick Step03:41:18  +  00:23:57=29,959 
153153 NEDTom LeezerNLDTeam Lotto NL - Jumbo03:41:18  +  00:23:57=29,959 
154154 AUSLuke DurbridgeAUSOrica - GreenEDGE03:41:18  +  00:23:57=29,959 
155155 CANSvein TuftAUSOrica - GreenEDGE03:41:18  +  00:23:57=29,959 
156156 IOMMark CavendishBELEtixx - Quick Step03:41:18  +  00:23:57=29,959 
157157 FRAArnaud DémareFRAFDJ03:41:18  +  00:23:57=29,959 
158158 USATyler FarrarZAFMTN - Qhubeka P/B Samsung03:41:18  +  00:23:57=29,959 
159159 NORAlexander KristoffRUSTeam Katusha03:41:18  +  00:23:57=29,959 
160160 AUTMatthias BrändleCHEIAM Cycling03:41:18  +  00:23:57=29,959 

Todays birthdays.

1878  Jean Novo
1883  Jules Chabas
1890  Ange Aubry
1893  Roger Marye
1913  Paul Maye
1914  Lucien Vlaemynck
1915  Alphonse Antoine
1932  Rolf Graf
1953  Julio Rubiano
1959  Jos Haex
1959  Gerard Veldscholten
1963  Pablo Moreno
1964  Juan Castillo
1977  Iban Mayo
1994  Fernando Gaviria